C/2019 B3 ( PanSTARRS )

Japanese version
Home page
Updated on May 20, 2019

---------------------------------------------------------------------

* Profile

Discovery Date January 24, 2019
Magnitude 19.6 mag
Discoverer Pan-STARRS 1 telescope (Haleakala)

* Pictures

* Orbital Elements

Epoch 2021 Jan. 26.0 TT = JDT 2459240.5
T 2021 Jan. 19.25530 TT                                 MPCW
q   6.8297117            (2000.0)            P               Q
z  -0.0002526      Peri.  263.80767     -0.11865185     +0.99261878
 +/-0.0000543      Node   358.43250     +0.00250542     -0.02497282
e   1.0017249      Incl.   66.54125     -0.99293276     -0.11867735
From 68 observations 2019 Jan. 24-Apr. 11, mean residual 0".6.

* Magnitudes Graph

        m1 = 5.5 + 5 log d + 10.0 log r

---------------------------------------------------------------------

The orbital elements are published on M.P.E.C. 2019-J142.
The magnitudes graphs are made with Comet for Windows.

---------------------------------------------------------------------

Copyright(C) Seiichi Yoshida (comet@aerith.net). All rights reserved.